Rbgn^[z[y[W
メイン
   新天体発見情報
     Comet C/2021 T1 (Lemmon)
投稿するにはまず登録を

スレッド表示 | 新しいものから 前のトピック | 次のトピック | 下へ
投稿者 スレッド
佐藤裕久
投稿日時: 2021-10-23 11:04
モデレータ
登録日: 2005-6-12
居住地: 日本
投稿: 2505
オンライン
Comet C/2021 T1 (Lemmon)

10月2日、Mt Lemmonの1.5-m 反射望遠鏡で、小惑星状天体が発見された。
小惑星センターのNEOCP webpageに公表された。PCCP webpageにも公表された後、佐藤英貴氏
(東京都文京区, 10月3.26日UT, 60秒露出14枚のスタック, 0.43-m f/6.8 アストログラフ, 
Mayhill近郊, ニューメキシコ州, 米国, 遠隔操作: 強く集光した6" のコマが見えるが尾はない。
5".7の円形範囲で測定した光度は19.7等であった)らCCD位置観測者によって彗星状と観測された。

彗星機能の報告は次のとおり、

OC   Date        Reporter           Coma    Tail    PA          Exposures
H06  2021-10-03  H. Sato            6"                           14x60s
B49  2021-10-04  J. Camarasa       12"      10"    180  
B96  2021-10-04  E. Bryssinck       8"      12"    317           30x90s

発見位置は次のとおり、

     2021 UT             R.A. (2000) Decl.       Mag.
     Oct.  2.20822   23 53 01.81   +44 29 43.5   20.0
           2.21351   23 53 00.50   +44 29 40.4   20.0
           2.21881   23 52 59.13   +44 29 36.7   19.8
           2.22411   23 52 57.78   +44 29 33.0   20.0
           2.34385   23 52 27.40   +44 28 11.9   19.5
           2.34669   23 52 26.61   +44 28 10.1   19.5
           2.34963   23 52 25.84   +44 28 07.8   20.1
           2.35268   23 52 25.11   +44 28 05.9   20.0

MPCの準放物線軌道要素、位置推算表は次のとおり、

Orbital elements:
    C/2021 T1 (Lemmon)                                                          
Epoch 2021 Nov. 2.0 TT = JDT 2459520.5                                          
T 2021 Oct. 14.27740 TT                                 Rudenko                 
q   3.0562765            (2000.0)            P               Q                  
z  +0.0030994      Peri.   51.52751     +0.84505737     -0.02812947             
 +/-0.0013341      Node    56.78613     -0.02411421     -0.99960409             
e   0.9905273      Incl.  140.34256     +0.53413158     -0.00062465             
From 73 observations 2021 Sept. 15-Oct. 7, mean residual 0".9.                  
                                                                                
    C/2021 T1 (Lemmon)                                                          
Epoch 2021 July 5.0 TT = JDT 2459400.5                                          
T 2021 Oct. 14.25061 TT                                 Rudenko                 
q   3.0563092            (2000.0)            P               Q                  
z  +0.0031346      Peri.   51.51853     +0.84505972     -0.02804151             
 +/-0.0013341      Node    56.78383     -0.02398832     -0.99960662             
e   0.9904196      Incl.  140.34123     +0.53413354     -0.00052820             
From 73 observations 2021 Sept. 15-Oct. 7, mean residual 0".9.                  
                                                                                
Ephemeris:
Date    TT    R. A. (2000) Decl.     Delta      r    Elong.  Phase   m1
2021 09 08    01 29 56.2 +44 46 45   2.4469  3.0768   120.0    16.5  19.3
...
2021 09 23    00 32 09.5 +45 34 28   2.2817  3.0634   133.8    13.7  19.2
...
2021 10 01    23 58 07.9 +44 42 38   2.2422  3.0590   137.8    12.7  19.1
...
2021 10 07    23 33 16.9 +43 26 13   2.2373  3.0571   138.3    12.6  19.1
2021 10 08    23 29 17.4 +43 10 38   2.2385  3.0569   138.2    12.6  19.1
2021 10 09    23 25 21.1 +42 54 19   2.2404  3.0567   138.0    12.6  19.1
...
2021 10 15    23 03 04.1 +41 02 50   2.2639  3.0563   135.5    13.2  19.1
...
2021 10 23    22 37 32.7 +38 08 44   2.3263  3.0575   129.5    14.5  19.2
...
2021 11 07    22 03 09.0 +32 23 29   2.5224  3.0651   114.2    17.2  19.4

(MPEC 2021-T168、CBET 5053)

スレッド表示 | 新しいものから 前のトピック | 次のトピック | トップ

投稿するにはまず登録を
 
© 1999 Tsutomu Seki.